Location: Flint Hill Observatory
(31.1875°N, 100.5222°W)
Time: 10:55:06
(UTC-05:00)

Daily predictions for brighter satellites

Satellite Brightness Start Highest point End
(mag) Time Altitude Azimuth Time Altitude Azimuth Time Altitude Azimuth
Atlas 2A Centaur Rocket 4.2 20:25:00 10° W 20:29:53 68° S 20:58:23 10° ESE
Cosmos 1655 Rocket 4.0 21:05:33 10° N 21:11:46 69° E 21:17:57 10° SSE
Cosmos 1626 Rocket 4.0 21:12:12 10° SSW 21:16:39 70° W 21:21:05 10° N
Aureole 1 Rocket 2.5 21:14:40 10° S 21:17:36 48° ESE 21:20:58 10° NNE
Cosmos 1607 4.1 21:13:00 10° NNW 21:19:19 66° ENE 21:25:28 10° SE
Intercosmos 25 3.6 21:17:17 10° SSW 21:20:26 63° W 21:24:16 10° N
H-2A R/B 4.1 21:20:37 10° E 21:22:37 12° ENE 21:24:36 10° NE
Cosmos 1733 3.4 21:19:52 10° N 21:23:38 72° W 21:27:23 10° S
Cosmos 2263 Rocket 4.0 21:20:35 10° SW 21:25:48 37° WNW 21:31:03 10° N
ATLAS 2AS CENTAUR R/B 3.0 21:25:25 10° SSW 21:32:55 68° ESE 21:40:55 10° NE
Aurora 2 Rocket 3.8 21:29:01 10° SW 21:34:01 42° SSE 21:41:07 10° E
Resurs 1-3 3.7 21:30:58 10° SSE 21:35:15 58° ENE 21:39:34 10° N
SEDSat Delta rocket 4.0 21:33:22 10° SW 21:38:36 37° SSE 21:43:11 10° E
Thor Agena Rocket 3.7 21:35:01 10° N 21:40:06 77° WNW 21:45:07 10° SSW
Cosmos 1812 Rocket 3.5 21:36:08 10° N 21:40:31 83° E 21:44:53 10° S
In-Cosmos 22 4.5 21:35:18 10° SSE 21:40:32 48° E 21:45:56 10° NNE
Meteor 2-5 Rocket 3.9 21:34:45 10° S 21:40:38 67° E 21:46:30 10° NNE
Iridium 4 Rocket 4.0 21:35:45 10° SSE 21:41:11 47° E 21:46:16 10° NNE
Palapa 6 Rocket 4.3 21:39:23 10° WSW 21:43:45 33° S 21:47:51 15° ESE
Cosmos 1953 Rocket 4.0 21:40:01 10° SSE 21:44:05 41° E 21:48:12 10° NNE
Cosmos 1758 Rocket 3.6 21:44:47 10° S 21:49:11 63° E 21:53:33 10° NNE
Cosmos 1707 4.5 21:48:04 10° SSW 21:51:36 34° W 21:55:07 10° NNW
Cosmos 1674 4.0 21:50:20 18° ESE 21:51:43 22° E 21:54:42 10° NE
Cosmos 1437 4.3 21:49:31 10° NNE 21:51:49 18° ENE 21:52:33 17° E
Meteor 1-16 Rocket 4.2 21:47:28 10° N 21:53:05 69° E 21:58:40 11° SSE
Cosmos 1939 Rocket 3.9 21:53:34 10° S 21:57:29 45° W 22:01:23 10° NNW
USA 186 3.8 21:58:09 10° SSW 22:00:58 26° W 22:03:39 10° NW
Resurs 01 Rocket 1.9 21:59:01 10° S 22:03:24 67° W 22:07:48 10° NNW
ERS-2 2.1 22:00:37 16° SSE 22:03:27 89° WSW 22:07:08 10° NNW
USA 215 3.6 21:58:50 16° ESE 22:03:56 55° NE 22:10:19 10° NNW
Cosmos 1726 4.2 22:05:19 10° NE 22:07:10 13° ENE 22:07:13 13° ENE
NOSS 3-4 (A) 4.0 22:05:26 10° S 22:10:52 33° ESE 22:16:21 10° NE
NOSS 3-4 (C) 4.0 22:05:34 10° S 22:10:57 33° ESE 22:16:25 10° NE
OAO 3 Rocket 3.9 22:06:18 10° WNW 22:11:10 54° N 22:15:30 13° E
Cosmos 921 Rocket 4.2 22:08:13 10° N 22:12:08 28° ENE 22:13:34 24° ESE
Cosmos 1825 Rocket 4.4 22:09:08 10° SSW 22:13:29 52° W 22:17:50 10° N
OAO 3 Copernicus 4.2 22:10:49 10° WNW 22:15:54 87° SSW 22:18:42 27° ESE
Cosmos 1315 Rocket 3.8 22:13:07 10° SSW 22:17:01 47° W 22:20:59 10° N
Cosmos 1461 3.6 22:15:56 25° SSE 22:17:53 37° ESE 22:22:12 10° NE
ARGOS 3.3 22:17:48 25° SE 22:20:52 59° ENE 22:26:12 10° N
Cosmos 2278 Rocket 2.9 22:18:53 26° SE 22:20:53 33° ESE 22:25:54 10° NE
H-II Stage 2 2.9 22:20:04 10° SW 22:23:55 24° S 22:23:55 24° S
Spot 2 Rocket 4.0 22:22:32 14° S 22:26:44 56° W 22:31:42 10° NNW
MetOp-A 4.2 22:24:08 28° SSE 22:26:55 64° ENE 22:32:13 10° N
ATLAS 3B CENTAUR R/B 4.5 22:03:52 10° SW 22:27:04 55° SSE 22:35:03 16° E
PSLV R/B 4.4 22:24:29 10° SW 22:26:05 26° SSW 22:26:05 26° SSW
Cosmos 220 Rocket 3.9 22:31:09 38° SSE 22:32:28 57° ESE 22:36:37 10° NNE
Cosmos 1844 Rocket 3.8 22:32:00 10° SW 22:37:24 46° WNW 22:42:50 10° N
ASC 2 Rocket 4.4 22:33:08 10° SW 22:38:26 29° S 22:38:26 29° S
Cosmos 1244 Rocket 4.4 22:33:25 10° N 22:39:48 79° E 22:43:09 30° SSE
SL-08 RB Rocket 3.7 22:39:23 43° SSE 22:40:51 72° ENE 22:45:31 10° N
KORONAS-FOTON 3.7 22:40:26 53° S 22:41:18 82° E 22:45:13 10° N
Cosmos 1844 4.4 22:38:25 10° SW 22:43:57 54° WNW 22:49:35 10° N
Cosmos 1238 Rocket 4.5 22:42:41 11° SW 22:44:48 21° W 22:47:10 10° NNW
COSMOS 2406 3.7 22:39:18 10° N 22:44:49 46° ENE 22:46:26 37° ESE
SPOT 5 3.7 22:45:39 33° E 22:46:32 36° ENE 22:51:16 10° N
CZ-3 Stage 3 3.9 22:44:13 10° W 22:48:18 84° S 23:12:26 10° E
Cosmos 2084 3.1 22:48:40 10° NNW 22:52:30 75° WSW 22:52:41 73° SSW
Cosmos 1110 Rocket 3.9 22:47:22 10° NNW 22:52:33 75° ENE 22:53:47 52° SE
Cosmos 1346 Rocket 3.3 22:49:39 10° NNW 22:53:35 55° W 22:54:36 42° SW
ATLAS 5 CENTAUR R/B 2.3 22:55:48 39° ENE 22:55:48 39° ENE 22:59:07 10° NE
Cosmos-2242 3.6 22:52:30 10° NNW 22:56:47 53° W 22:58:13 36° SSW
ATLAS 3B R/B 3.1 22:51:47 10° NNW 22:58:04 45° ENE 23:00:07 35° E
H-2A R/B 2.3 22:59:24 39° S 23:01:18 68° WSW 23:06:40 10° NNW
SPOT 1/Viking Rocket 3.8 23:00:46 47° E 23:01:22 49° ENE 23:06:18 10° N
USA 238 DEB 3.9 22:55:26 10° NNW 23:02:36 68° ENE 23:05:06 43° SE
USA 238 3.9 22:55:33 10° NNW 23:02:42 68° ENE 23:05:12 43° SE
S3M 4.0 23:00:15 30° S 23:03:38 85° W 23:10:03 10° N
Cosmos 1626 4.4 23:06:15 15° NE 23:06:15 15° NE 23:07:10 10° NE
Helios 1A 3.5 23:05:04 46° NE 23:05:04 46° NE 23:08:41 10° N
Cosmos 1331 Rocket 3.9 22:59:40 10° NNW 23:04:55 87° ENE 23:05:51 61° SSE
Helios 1B rocket 3.2 23:07:08 10° NNE 23:10:02 41° NE 23:10:02 41° NE
Cosmos 1908 4.0 23:09:29 10° NNW 23:13:11 45° W 23:13:17 45° W
Cosmos 2082 Rocket 4.1 23:10:39 10° NNE 23:14:06 16° ENE 23:14:50 16° ENE
NOSS 3-2 (A) 4.4 23:06:42 10° NNW 23:14:17 54° ENE 23:17:06 39° ESE
Cosmos 1833 Rocket 4.4 23:10:57 10° NNE 23:14:47 18° ENE 23:15:19 18° ENE
Cosmos 1842 Rocket 3.6 23:12:24 10° N 23:16:22 72° NNE 23:16:22 72° NNE
Cosmos 1340 3.3 23:14:22 10° N 23:17:22 53° NNW 23:17:22 53° NNW
Landsat 7 3.9 23:21:20 62° NE 23:21:20 62° NE 23:25:46 10° N
CZ-2C R/B 3.8 23:17:45 10° NNE 23:21:06 29° ENE 23:21:06 29° ENE
SEDSat Delta rocket 3.5 23:19:29 10° WSW 23:23:43 56° WSW 23:23:43 56° WSW
ERS-1 Rocket 3.5 23:26:45 46° SW 23:27:30 50° W 23:32:23 10° NNW
Aurora 2 Rocket 4.0 23:21:15 10° WSW 23:27:44 54° S 23:28:29 53° SSE
Cosmos 1375 Rocket 4.4 23:27:23 10° NNW 23:33:58 76° ENE 23:34:46 67° ESE
Cosmos 1302 Rocket 3.9 23:28:40 10° NNW 23:33:50 85° NNE 23:33:50 85° NNE
Cosmos 1300 4.2 23:34:10 10° N 23:36:28 35° N 23:36:28 35° N
RESURS DK-1 4.5 23:41:55 20° NNE 23:41:55 20° NNE 23:43:17 10° NNE
NOSS 3-2 (C) 4.3 23:32:33 10° NNW 23:40:14 58° ENE 23:42:13 48° ESE
Terra 2.3 23:41:23 53° NNE 23:41:23 53° NNE 23:45:13 10° N
Cosmos 883 Rocket 4.4 23:39:52 63° SSW 23:40:53 78° W 23:47:08 10° N
Cosmos 1726 4.2 23:39:16 10° NW 23:41:48 24° WNW 23:41:48 24° WNW
Cosmos 2221 3.5 23:42:06 10° N 23:45:02 43° N 23:45:02 43° N
USA 215 4.2 23:46:11 31° SW 23:46:59 32° SW 23:52:46 10° WNW
Cosmos 2315 Rocket 3.8 23:47:00 80° SSE 23:47:23 87° E 23:53:45 10° N
OAO 3 Rocket 4.2 23:50:00 10° WNW 23:53:19 43° WNW 23:53:19 43° WNW
